« Back
NWS Peachtree City, Ga » Text Product » GA Regional Weather Roundup


Printer-friendly Version
Current Version              Previous Versions:   1  2  3  4  5  6  7  8  9  

Regional Weather Roundup

808
ASUS42 KFFC 282003
RWRGA
WEATHER ROUNDUP FOR GEORGIA
NATIONAL WEATHER SERVICE PEACHTREE CITY GA
400 PM EDT THU JUL 28 2016

NOTE: "FAIR" INDICATES FEW OR NO CLOUDS BELOW 12,000 FEET WITH NO
SIGNIFICANT WEATHER AND/OR OBSTRUCTIONS TO VISIBILITY.

* = USE WITH CAUTION. THE STATIONS MARKED WITH AN ASTERISK MAY NOT
REPORT WEATHER SUCH AS PRECIPITATION, FOG, OR THUNDER AND ARE NOT
QUALITY CONTROLLED BY NWS.

THE REMARK "TC" DENOTES TEMPERATURE READING IN DEGREES CELSIUS.

GAZ001>058-282100-
NORTH GEORGIA

CITY           SKY/WX    TMP DP  RH WIND       PRES   REMARKS
ATLANTA        PTSUNNY   88  68  51 SW12      29.99F HX  91
ATHENS         PTSUNNY   90  70  51 VRB6      29.98F HX  95
CHAMBLEE       CLOUDY    86  68  54 SW12      30.00F
PEACHTREE CITY PTSUNNY   90  68  48 W10G20    30.00F HX  94
ROME           PTSUNNY   88  68  51 S9G16     29.93F HX  91
WEST ATLANTA   LGT RAIN  86  69  56 SW9       29.98F HX  90
GAINESVILLE    MOSUNNY   87  68  52 W13       30.02F HX  90
CARTERSVILLE   MOSUNNY   88  70  55 S10G16    29.97F HX  93


CITY           SKY/WX    TMP DP  RH WIND       PRES   REMARKS
DALTON*        CLOUDY    88  70  55 S9        29.94F HX  92
LAWRENCEVILLE* PTSUNNY   86  70  58 SW14      29.99F HX  90
KENNESAW*      PTSUNNY   86  68  54 SW7G16    29.94F
CANTON*        MOSUNNY   86  59  39 W13G20    30.00F
BLAIRSVILLE*     N/A    N/A N/A N/A MISG      30.03F
$$

GAZ059>098-102>109-282100-
CENTRAL GEORGIA

CITY           SKY/WX    TMP DP  RH WIND       PRES   REMARKS
AUGUSTA-BUSH   MOSUNNY   98  64  32 W20       29.93F HX 100
AUGUSTA-DANIEL MOSUNNY   98  66  34 SW16G23   29.95F HX 101
COLUMBUS       MOSUNNY   95  65  37 W13G23    29.98F HX  97
MACON          MOSUNNY   97  63  32 W20G28    29.98F HX  98
ROBINS AFB     MOSUNNY   97  67  37 W12       29.97F HX 100


CITY           SKY/WX    TMP DP  RH WIND       PRES   REMARKS
LAGRANGE*      PTSUNNY   94  74  53 W12G20    30.00F HX 104
MILLEDGEVILLE* MOSUNNY   95  72  46 W10       29.97F HX 103
$$

GAZ099>101-110>166-282100-
SOUTH GEORGIA

CITY           SKY/WX    TMP DP  RH WIND       PRES   REMARKS
SAVANNAH       MOSUNNY   99  66  33 SW13      29.97F HX 103
VALDOSTA       SUNNY     96  69  41 SW12      30.00F HX 102
ALMA           SUNNY     98  64  32 W8        29.98F HX 100
ST SIMONS      MOSUNNY   90  77  65 SE15G21   29.99F HX 103
FT STEWART     SUNNY     97  66  36 W15G21    29.95  HX 100
ALBANY         MOSUNNY   95  66  38 SW8       30.02F HX  98
HUNTER AFB     MOSUNNY   98  73  43 W12       29.94  HX 108
MOODY AFB      MOSUNNY   96  67  39 SW10      30.00F HX  99
BRUNSWICK      MOSUNNY   99  70  39 W10G20    29.99F HX 105


CITY           SKY/WX    TMP DP  RH WIND       PRES   REMARKS
BAINBRIDGE*    SUNNY     97  70  41 W6        30.01F HX 103
MOULTRIE*      SUNNY     95  68  41 SW7       30.02F HX  99
VIDALIA*       MOSUNNY   99  63  30 W16       29.98F HX 100
WAYCROSS*      SUNNY    102  68  33 W8        29.99F HX 108
DOUGLAS*       SUNNY     97  61  30 SW15      30.00F HX  97
$$




USA.gov is the U.S. government's official web portal to all federal, state and local government web resources and services.